Weather Roundup
Issued by NWS Chicago, IL

Home | Current Version | Previous Version | Text Only | Print | Product List | Glossary Off
Versions: 1 2 3 4 5 6 7 8 9 10 11 12 13 14 15 16 17 18 19 20 21 22 23 24 25 26 27 28 29 30 31 32 33 34 35 36 37 38 39 40 41 42 43 44 45 46 47 48 49 50

000
NZUS59 KLOT 222309
HRRLOT

CHICAGO AREA WEATHER ROUNDUP
NATIONAL WEATHER SERVICE CHICAGO/ROMEOVILLE IL
600 PM CDT SUN OCT 22 2017

NOTE: "FAIR" INDICATES FEW OR NO CLOUDS BELOW 12,000 FEET WITH NO
SIGNIFICANT WEATHER AND/OR OBSTRUCTIONS TO VISIBILITY.

* THESE STATIONS ARE NOT UNDER NWS QUALITY CONTROL. THEY ALSO MAY NOT
  REPORT WEATHER SUCH AS PRECIPITATION OR FOG.

ILZ005-006-012>014-019>023-230000-
NORTHEAST ILLINOIS

CITY           SKY/WX    TMP DP  RH WIND       PRES   REMARKS
OHARE          LGT RAIN  52  49  89 N9        30.03R FOG
MIDWAY         LGT RAIN  53  52  96 N7        30.03R FOG
AURORA         LGT RAIN  52  50  93 N7        30.05R
LANSING*       RAIN      52  52 100 N7        30.04R
JOLIET*        DRIZZLE   53  52  97 N6        30.05R
WAUKEGAN       LGT RAIN  51  50  96 N5        30.03R FOG
DUPAGE AIRPORT LGT RAIN  51  51 100 NE6       30.04R FOG
WHEELING       LGT RAIN  53  52  96 N6        30.06R
KANKAKEE*      CLOUDY    53  51  94 N10G17    30.04R
MORRIS*        DRIZZLE   52  50  93 N5        30.04S
LEWIS AIRPORT* CLOUDY    51  50  96 N8        30.04S
NORTHERLY ISL    N/A     53  50  89 NW15        N/A
$$

WIZ051-052-058>065-066-070>072-230000-
SOUTHEAST WISCONSIN

CITY           SKY/WX    TMP DP  RH WIND       PRES   REMARKS
MILWAUKEE      LGT RAIN  52  50  93 N6        30.03R
KENOSHA*       LGT RAIN  51  49  92 N6        30.03S FOG
RACINE*        RAIN      51  50  96 N5        30.05R FOG
BURLINGTON     LGT RAIN  49  49 100 NW3       30.04R
WAUKESHA       CLOUDY    48  46  93 NW5       30.04R
WEST BEND      RAIN      48  46  93 NW3       30.03S
$$

INZ001>003-010>013-019-020-230000-
NORTHWEST INDIANA

CITY           SKY/WX    TMP DP  RH WIND       PRES   REMARKS
GARY*          LGT RAIN  54  52  94 NW15G30   30.04R
MICHIGAN CITY* NOT AVBL
RENSSELAER*    NOT AVBL
VALPARAISO     CLOUDY    56  54  93 N13G20    30.01R
$$

LMZ740>746-230000-
SOUTHERN LAKE MICHIGAN

STATION/POSITION TIME  SKY/WX   TEMP WIND        PRES    VSBY
                                AIR  DIR/SP/G
                 (UTC)          (F)  (DEG/KT/KT) (MB)    (MI)
HARRISON CRIB    2240            53  350/ 21/ 22   N/A
BURNHAM HARBOR   2300            53  320/ 13/ 21   N/A
CALUMET HARBOR   2230            52  340/ 16/ 25 1016.2R
BURNS HARBOR     2240            54  340/ 18/ 23 1016.9R
MICHIGAN CITY    2240            55  330/ 21/ 24   N/A
$$

ABBREVIATIONS USED IN REMARKS
   TC - TEMPERATURE IN CELSIUS
  WCI - WIND CHILL INDEX
   HX - HEAT INDEX
  VSB - VISIBILITY
$$



USA.gov is the U.S. government's official web portal to all federal, state and local government web resources and services.